Weather Roundup
Issued by NWS Chicago, IL

Home | Current Version | Previous Version | Graphics & Text | Print | Product List | Glossary On
Versions: 1 2 3 4 5 6 7 8 9 10 11 12 13 14 15 16 17 18 19 20 21 22 23 24 25 26 27 28 29 30 31 32 33 34 35 36 37 38 39 40 41 42 43 44 45 46 47 48 49 50
000
NZUS59 KLOT 202205
HRRLOT

CHICAGO AREA WEATHER ROUNDUP
NATIONAL WEATHER SERVICE CHICAGO/ROMEOVILLE IL
400 PM CST SAT JAN 20 2018

NOTE: "FAIR" INDICATES FEW OR NO CLOUDS BELOW 12,000 FEET WITH NO
SIGNIFICANT WEATHER AND/OR OBSTRUCTIONS TO VISIBILITY.

* THESE STATIONS ARE NOT UNDER NWS QUALITY CONTROL. THEY ALSO MAY NOT
  REPORT WEATHER SUCH AS PRECIPITATION OR FOG.

ILZ005-006-012>014-019>023-202300-
NORTHEAST ILLINOIS

CITY           SKY/WX    TMP DP  RH WIND       PRES   REMARKS
OHARE          MOCLDY    45  33  63 SW9       29.94R
MIDWAY         MOCLDY    46  35  65 SW8       29.95R
AURORA           N/A     45  36  70 SW3       29.94R
LANSING*       CLOUDY    42  38  86 SW7       29.96R
JOLIET*        CLOUDY    45  39  79 SW6       29.96R
WAUKEGAN         N/A     45  31  58 VRB6      29.93R
DUPAGE AIRPORT   N/A     43  36  76 SW6       29.93R
WHEELING         N/A     45  32  60 SW8       29.94R
KANKAKEE*      CLOUDY   N/A N/A N/A SW10      29.98R
MORRIS*        CLOUDY    43  38  82 S10       29.94R
NORTHERLY ISL    N/A     46  32  58 S9          N/A
$$

WIZ051-052-058>065-066-070>072-202300-
SOUTHEAST WISCONSIN

CITY           SKY/WX    TMP DP  RH WIND       PRES   REMARKS
MILWAUKEE      MOCLDY    43  32  65 E5        29.92R
KENOSHA*         N/A     45  32  60 SW8       29.93R
RACINE*          N/A     46  32  58 SW6       29.94R
BURLINGTON       N/A     43  31  62 W6        29.93R
WAUKESHA       CLEAR     46  30  53 CALM      29.92R
$$

INZ001>003-010>013-019-020-202300-
NORTHWEST INDIANA

CITY           SKY/WX    TMP DP  RH WIND       PRES   REMARKS
GARY*          MOCLDY    45  36  70 SW8       29.96R
MICHIGAN CITY* NOT AVBL
RENSSELAER*    NOT AVBL
VALPARAISO     CLOUDY    42  35  76 S6        29.97R
$$

LMZ740>746-202300-
SOUTHERN LAKE MICHIGAN

STATION/POSITION TIME  SKY/WX   TEMP WIND        PRES    VSBY
                                AIR  DIR/SP/G
                 (UTC)          (F)  (DEG/KT/KT) (MB)    (MI)
HARRISON CRIB    2140            46  210/ 12/ 13   N/A
BURNHAM HARBOR   2200            46  210/  7/ 12   N/A
CALUMET HARBOR   2130            44  190/  7/ 12 1013.2R
BURNS HARBOR     2140            43  200/ 11/ 16 1014.9R
MICHIGAN CITY    2140            43  190/ 12/ 15   N/A
$$

ABBREVIATIONS USED IN REMARKS
   TC - TEMPERATURE IN CELSIUS
  WCI - WIND CHILL INDEX
   HX - HEAT INDEX
  VSB - VISIBILITY
$$




USA.gov is the U.S. government's official web portal to all federal, state and local government web resources and services.